Regional Weather Roundup
Issued by NWS Green Bay, WI

Home | Current Version | Previous Version | Text Only | Print | Product List | Glossary On
Versions: 1 2 3 4 5 6 7 8 9 10 11 12 13 14 15 16 17 18 19 20 21 22 23 24 25 26 27 28 29 30 31 32 33 34 35 36 37 38 39 40 41 42 43 44 45 46 47 48 49 50
000
ASUS43 KGRB 281911
RWRGRB

NORTH-CENTRAL AND NORTHEAST WISCONSIN REGIONAL WEATHER ROUNDUP
NATIONAL WEATHER SERVICE GREEN BAY WI
200 PM CDT TUE JUL 28 2015

WIZ005-009-010>012-018-019-282000-
NORTH CENTRAL WISCONSIN

CITY           SKY/WX    TMP DP  RH WIND       PRES   REMARKS
IRONWOOD       CLOUDY    79  68  69 S18G29    29.81S
MANITOWISH WTR CLOUDY    77  69  75 S12       29.89S
ARBOR VITAE    CLOUDY    77  67  71 S14G22    29.91S
EAGLE RIVER    CLOUDY    77  62  60 S9G17     29.92S
LAND O LAKES   CLOUDY    77  63  61 S8        29.94R
RHINELANDER    CLOUDY    80  65  59 S12G22    29.93R
PHILLIPS       PTSUNNY   81  67  63 S15       29.88R
ANTIGO         CLOUDY    79  67  66 S13       29.93S
TOMAHAWK       PTSUNNY   81  66  61 S8        29.91S
MERRILL        NOT AVBL
$$

WIZ013-073-282000-
NORTHEAST WISCONSIN

CITY           SKY/WX    TMP DP  RH WIND       PRES   REMARKS
IRON MOUNTAIN  CLOUDY    82  63  52 S10G18    29.93F
MARINETTE      CLOUDY    82  64  54 S10G16    29.92F
OCONTO         CLOUDY    85  66  53 S8        29.91F
$$

WIZ017-030-035>037-045-282000-
CENTRAL WISCONSIN

CITY           SKY/WX    TMP DP  RH WIND       PRES   REMARKS
MEDFORD        PTSUNNY   78  68  71 S14       29.90R
WAUSAU         CLOUDY    83  67  58 S17       29.89S
MOSINEE        MOSUNNY   79  68  69 S13       29.91F
MARSHFIELD     CLOUDY    78  68  71 S13       29.89R
WISC RAPIDS    CLOUDY    82  67  60 S7        29.88S
STEVENS POINT  CLOUDY    79  65  63 SE12G17   29.89F
WAUPACA        PTSUNNY   84  65  51 SE16      29.89F
SHAWANO        CLOUDY    84  64  52 S5        29.92S
CLINTONVILLE   PTSUNNY   82  61  47 S9        29.90F
$$

WIZ038-039-048-051-282000-
FOX VALLEY

CITY           SKY/WX    TMP DP  RH WIND       PRES   REMARKS
NWS GREEN BAY  PTSUNNY   88  61  40 S13       29.92F
APPLETON       PTSUNNY   84  59  42 SE16      29.93F
OSHKOSH        MOSUNNY   87  65  47 S12       29.92F
FOND DU LAC    MOSUNNY   87  64  46 S14       29.94F
$$

WIZ022-050-052-282000-
EAST CENTRAL WISCONSIN

CITY           SKY/WX    TMP DP  RH WIND       PRES   REMARKS
STURGEON BAY   CLOUDY    82  64  54 S13       29.96F
MANITOWOC      CLOUDY    80  67  64 MISG      29.95F
SHEBOYGAN      PTSUNNY   84  67  56 S12       29.96F
$$

LMZ563-521-522-541>543-282000-
LAKESHORE

STATION/POSITION TIME  TEMP    WIND        PRES    VSBY  WAVE
                       AIR SEA DIR/SP/G                  HT/PER
                 (UTC) (F)     (DEG/KT/KT) (MB)    (MI)  (FT/S)
SHEBOYGAN LKSHOR 1900   72     160/ 12/ 12 1014.5F
KEWAUNEE LKSHORE 1800   67     180/  8/  8 1014.7F
ALGOMA MARINA    1827             CALM       N/A
TWO RIVERS CG    1820   74                 1015.8      6   1
NORTHPORT PIER   1800   77     140/  7/ 11 1014.9F
N MID LAKE BUOY  1850   72 71  190/  8/  8 1014.8F         0
S GREEN BAY BUOY 1900   81 76  160/ 12/ 14 1014.5
SISTER BAY LKSHO 1814   84     160/ 10/ 12   N/A
STURGEON BAY CG  1805   71     160/  4     1015.8   3 1/2  1
CHAMBERS ISLAND  1800   81     190/  3/  6 1014.6F
MENOMINEE LKSHOR 1800   81     170/  8/ 12 1015.2F
$$



USA.gov is the U.S. government's official web portal to all federal, state and local government web resources and services.